Torna al catalogo

NAVSTAR 84

USA 545

AttivoNavigazioneHEO
NORAD 64202·PAYLOAD·🇺🇸 United States

Lanciato May 30, 2025 da Cape Canaveral Space Force Station

Loading…

Prossimi Passaggi (prossime 24 ore)

TLE

AggiornatoSource: CelesTrak SupGP

Epoca: Sep 16, 2026, 16:44 UTC

1 64202C 25116A   26259.69756944  .00000000  00000+0  00000+0 0  2590
2 64202  55.2936  27.4551 0009042 334.9535 294.8238  2.00569475    12

Traccia NAVSTAR 84 in tempo reale con AllMySat

Download on the App Store